Simultaneous Nadir Overpasses (SNOs) Predictions

Prediction of SNOs between AQUA and GOES-15 Satellite Orbit:

Table of predicted SNOs for the next 14.0 days since TLE Epoch: 9/26/2025
Index Date Time (AQUA) AQUA Lat,Lon GOES-15 Lat,Lon Distance(km) Time Diff (sec)
1 09/28/2025 10:41:49 0.77, 63.13 0.38, 61.35 202.81 80
2 09/28/2025 23:00:51 0.26, 58.54 -0.33, 61.34 317.75 80
3 09/30/2025 22:40:07 -0.83, 63.62 -0.36, 61.36 257.33 80
4 10/01/2025 10:59:17 -0.20, 58.99 0.31, 61.38 271.69 80
5 10/03/2025 10:38:32 0.91, 64.07 0.35, 61.39 304.41 80
6 10/03/2025 22:57:34 0.09, 59.48 -0.30, 61.37 215.12 80
7 10/05/2025 22:36:48 -1.03, 64.56 -0.34, 61.40 360.43 80
8 10/06/2025 10:55:58 -0.01, 59.94 0.28, 61.43 169.24 80
9 10/08/2025 10:35:10 1.07, 65.04 0.31, 61.45 407.12 80
10 10/08/2025 22:54:11 -0.05, 60.45 -0.25, 61.43 111.53 80
